When you browse on this site, cookies collect data to enhance your experience and personalize the content and advertising you see.
Visit our Privacy Policy to learn more. By continuing to use the site, you agree to this use of cookies and data.
  • In Österreich
  • Länderverzeichnis
  • Für 7 Tage
  • Wassertemperatur
  • Wetterkarte
  • News
  • Widgets
  • user-avatar
    Anmelden

    Stündliche Wetter Dobritsch

    Heute, 20 Oktober, Sonntag

    Zeit Temperatur Niederschläge Wind Luftdruck Luftfeuchtigkeit
    00:00 +14°C° 0 mm 2 m/S 743 mmHg 92%
    01:00 +14°C° 0 mm 2 m/S 743 mmHg 92%
    02:00 +14°C° 0 mm 1 m/S 743 mmHg 93%
    03:00 +14°C° 0 mm 1 m/S 743 mmHg 92%
    04:00 +14°C° 0 mm 1 m/S 743 mmHg 92%
    05:00 +14°C° 0 mm 1 m/S 743 mmHg 92%
    06:00 +14°C° 0 mm 2 m/S 743 mmHg 89%
    07:00 +15°C° 0 mm 2 m/S 743 mmHg 86%
    08:00 +16°C° 0 mm 2 m/S 743 mmHg 83%
    09:00 +17°C° 0 mm 2 m/S 744 mmHg 73%
    10:00 +19°C° 0 mm 2 m/S 744 mmHg 64%
    11:00 +21°C° 0 mm 3 m/S 744 mmHg 54%
    12:00 +21°C° 0 mm 3 m/S 744 mmHg 52%
    13:00 +22°C° 0 mm 3 m/S 744 mmHg 49%
    14:00 +23°C° 0 mm 2 m/S 744 mmHg 50%
    15:00 +21°C° 0 mm 2 m/S 744 mmHg 55%
    16:00 +20°C° 0 mm 2 m/S 743 mmHg 60%
    17:00 +19°C° 0 mm 2 m/S 743 mmHg 66%
    18:00 +17°C° 0 mm 2 m/S 743 mmHg 72%
    19:00 +16°C° 0 mm 2 m/S 743 mmHg 79%
    20:00 +15°C° 0 mm 2 m/S 744 mmHg 86%
    21:00 +15°C° 0 mm 2 m/S 744 mmHg 88%
    22:00 +15°C° 0 mm 2 m/S 744 mmHg 90%
    23:00 +14°C° 0 mm 2 m/S 744 mmHg 93%

    Morgen, 21 Oktober, Montag

    Zeit Temperatur Niederschläge Wind Luftdruck Luftfeuchtigkeit
    00:00 +14°C° 0 mm 2 m/S 744 mmHg 93%
    01:00 +14°C° 0 mm 2 m/S 744 mmHg 93%
    02:00 +14°C° 0 mm 2 m/S 744 mmHg 94%
    03:00 +14°C° 0 mm 2 m/S 744 mmHg 94%
    04:00 +14°C° 0 mm 2 m/S 744 mmHg 93%
    05:00 +13°C° 0 mm 2 m/S 744 mmHg 93%
    06:00 +14°C° 0 mm 2 m/S 744 mmHg 91%
    07:00 +15°C° 0 mm 2 m/S 744 mmHg 90%
    08:00 +15°C° 0 mm 2 m/S 745 mmHg 88%
    09:00 +17°C° 0 mm 2 m/S 745 mmHg 77%
    10:00 +19°C° 0 mm 2 m/S 745 mmHg 67%
    11:00 +21°C° 0 mm 2 m/S 745 mmHg 56%
    12:00 +21°C° 0 mm 2 m/S 745 mmHg 53%
    13:00 +23°C° 0 mm 2 m/S 745 mmHg 49%
    14:00 +24°C° 0 mm 2 m/S 745 mmHg 46%
    15:00 +21°C° 0 mm 2 m/S 744 mmHg 53%
    16:00 +20°C° 0 mm 2 m/S 744 mmHg 60%
    17:00 +19°C° 0 mm 2 m/S 744 mmHg 66%
    18:00 +17°C° 0 mm 2 m/S 744 mmHg 73%
    19:00 +16°C° 0 mm 2 m/S 744 mmHg 79%
    20:00 +15°C° 0 mm 2 m/S 744 mmHg 85%
    21:00 +15°C° 0 mm 1 m/S 744 mmHg 85%
    22:00 +14°C° 0 mm 1 m/S 744 mmHg 85%
    23:00 +14°C° 0 mm 1 m/S 744 mmHg 86%

    übermorgen, 22 Oktober, Dienstag

    Zeit Temperatur Niederschläge Wind Luftdruck Luftfeuchtigkeit
    00:00 +14°C° 0 mm 1 m/S 744 mmHg 85%
    01:00 +13°C° 0 mm 1 m/S 744 mmHg 84%
    02:00 +13°C° 0 mm 1 m/S 744 mmHg 83%
    03:00 +13°C° 0 mm 1 m/S 744 mmHg 82%
    04:00 +13°C° 0 mm 1 m/S 744 mmHg 81%
    05:00 +13°C° 0 mm 1 m/S 744 mmHg 80%
    06:00 +13°C° 0 mm 1 m/S 744 mmHg 78%
    07:00 +14°C° 0 mm 1 m/S 744 mmHg 76%
    08:00 +15°C° 0 mm 1 m/S 745 mmHg 74%
    09:00 +17°C° 0 mm 2 m/S 745 mmHg 67%
    10:00 +19°C° 0 mm 2 m/S 745 mmHg 59%
    11:00 +21°C° 0 mm 3 m/S 746 mmHg 52%
    12:00 +21°C° 0 mm 3 m/S 745 mmHg 49%
    13:00 +22°C° 0 mm 3 m/S 745 mmHg 46%
    14:00 +23°C° 0 mm 4 m/S 745 mmHg 43%
    15:00 +21°C° 0 mm 3 m/S 745 mmHg 48%
    16:00 +20°C° 0 mm 3 m/S 745 mmHg 52%
    17:00 +19°C° 0 mm 3 m/S 744 mmHg 56%
    18:00 +17°C° 0 mm 3 m/S 744 mmHg 63%
    19:00 +16°C° 0 mm 2 m/S 745 mmHg 70%
    20:00 +15°C° 0 mm 2 m/S 745 mmHg 77%
    21:00 +14°C° 0 mm 2 m/S 745 mmHg 77%
    22:00 +14°C° 0 mm 1 m/S 745 mmHg 78%
    23:00 +13°C° 0 mm 1 m/S 745 mmHg 79%

    23 Oktober, Mittwoch

    Zeit Temperatur Niederschläge Wind Luftdruck Luftfeuchtigkeit
    00:00 +13°C° 0 mm 1 m/S 745 mmHg 78%
    01:00 +13°C° 0 mm 1 m/S 745 mmHg 76%
    02:00 +13°C° 0 mm 1 m/S 744 mmHg 75%
    03:00 +13°C° 0 mm 1 m/S 744 mmHg 75%
    04:00 +13°C° 0 mm 1 m/S 744 mmHg 75%
    05:00 +13°C° 0 mm 2 m/S 744 mmHg 74%
    06:00 +13°C° 0 mm 2 m/S 744 mmHg 73%
    07:00 +14°C° 0 mm 2 m/S 744 mmHg 71%
    08:00 +15°C° 0 mm 2 m/S 744 mmHg 70%
    09:00 +17°C° 0 mm 2 m/S 744 mmHg 62%
    10:00 +19°C° 0 mm 2 m/S 744 mmHg 54%
    11:00 +21°C° 0 mm 2 m/S 745 mmHg 46%
    12:00 +23°C° 0 mm 2 m/S 744 mmHg 44%
    13:00 +23°C° 0 mm 2 m/S 744 mmHg 42%
    14:00 +24°C° 0 mm 3 m/S 744 mmHg 39%
    15:00 +21°C° 0 mm 2 m/S 743 mmHg 45%
    16:00 +20°C° 0 mm 2 m/S 743 mmHg 51%
    17:00 +19°C° 0 mm 2 m/S 743 mmHg 57%
    18:00 +17°C° 0 mm 2 m/S 743 mmHg 62%
    19:00 +16°C° 0 mm 2 m/S 743 mmHg 68%
    20:00 +15°C° 0 mm 2 m/S 743 mmHg 73%
    21:00 +15°C° 0 mm 1 m/S 743 mmHg 74%
    22:00 +14°C° 0 mm 1 m/S 743 mmHg 74%
    23:00 +14°C° 0 mm 1 m/S 743 mmHg 75%

    24 Oktober, Donnerstag

    Zeit Temperatur Niederschläge Wind Luftdruck Luftfeuchtigkeit
    00:00 +14°C° 0 mm 1 m/S 743 mmHg 75%
    01:00 +13°C° 0 mm 1 m/S 742 mmHg 76%
    02:00 +13°C° 0 mm 1 m/S 742 mmHg 76%
    03:00 +13°C° 0 mm 1 m/S 742 mmHg 76%
    04:00 +13°C° 0 mm 1 m/S 742 mmHg 76%
    05:00 +12°C° 0 mm 1 m/S 742 mmHg 77%
    06:00 +13°C° 0 mm 1 m/S 742 mmHg 73%
    07:00 +14°C° 0 mm 1 m/S 742 mmHg 70%
    08:00 +15°C° 0 mm 1 m/S 742 mmHg 67%
    09:00 +18°C° 0 mm 1 m/S 742 mmHg 59%
    10:00 +18°C° 0 mm 2 m/S 742 mmHg 52%
    11:00 +20°C° 0 mm 2 m/S 742 mmHg 44%
    12:00 +21°C° 0 mm 2 m/S 742 mmHg 43%
    13:00 +21°C° 0 mm 2 m/S 742 mmHg 41%
    14:00 +23°C° 0 mm 2 m/S 742 mmHg 40%
    15:00 +21°C° 0 mm 2 m/S 741 mmHg 46%
    16:00 +19°C° 0 mm 2 m/S 741 mmHg 51%
    17:00 +18°C° 0 mm 2 m/S 740 mmHg 57%
    18:00 +17°C° 0 mm 2 m/S 740 mmHg 63%
    19:00 +16°C° 0 mm 2 m/S 741 mmHg 68%
    20:00 +15°C° 0 mm 2 m/S 741 mmHg 74%
    21:00 +14°C° 0 mm 1 m/S 741 mmHg 75%
    22:00 +14°C° 0 mm 1 m/S 741 mmHg 76%
    23:00 +14°C° 0 mm 1 m/S 741 mmHg 76%

    25 Oktober, Freitag

    Zeit Temperatur Niederschläge Wind Luftdruck Luftfeuchtigkeit
    00:00 +13°C° 0 mm 1 m/S 740 mmHg 77%
    01:00 +13°C° 0 mm 1 m/S 740 mmHg 77%
    02:00 +13°C° 0 mm 1 m/S 740 mmHg 78%
    03:00 +12°C° 0 mm 1 m/S 740 mmHg 79%
    04:00 +12°C° 0 mm 1 m/S 740 mmHg 80%
    05:00 +12°C° 0 mm 1 m/S 740 mmHg 82%
    06:00 +13°C° 0 mm 1 m/S 740 mmHg 80%
    07:00 +13°C° 0 mm 1 m/S 740 mmHg 78%
    08:00 +14°C° 0 mm 1 m/S 741 mmHg 76%
    09:00 +16°C° 0 mm 2 m/S 741 mmHg 64%
    10:00 +18°C° 0 mm 2 m/S 741 mmHg 53%
    11:00 +20°C° 0 mm 2 m/S 741 mmHg 42%
    12:00 +21°C° 0 mm 2 m/S 741 mmHg 40%
    13:00 +21°C° 0 mm 2 m/S 741 mmHg 38%
    14:00 +22°C° 0 mm 3 m/S 741 mmHg 36%
    15:00 +20°C° 0 mm 3 m/S 741 mmHg 41%
    16:00 +19°C° 0 mm 3 m/S 741 mmHg 47%
    17:00 +17°C° 0 mm 3 m/S 740 mmHg 52%
    18:00 +16°C° 0 mm 2 m/S 741 mmHg 58%
    19:00 +15°C° 0 mm 2 m/S 741 mmHg 63%
    20:00 +14°C° 0 mm 2 m/S 741 mmHg 69%
    21:00 +13°C° 0 mm 2 m/S 741 mmHg 71%
    22:00 +13°C° 0 mm 1 m/S 741 mmHg 73%
    23:00 +13°C° 0 mm 1 m/S 741 mmHg 75%
    Mehr zeigen